| time (UTC) | temp F | wind direction | speed knots | gust knots | rain 1hr in | rain 24hr in | rain mn in | humidity % | barometer mb |
| 20260507043041 | 46 | 299 | 0.0 | 0.0 | 0.00 | 0.00 | 0.00 | 71 | 1016.4 |
| 20260507042546 | 47 | 299 | 0.0 | 0.0 | 0.00 | 0.01 | 0.00 | 70 | 1016.4 |
| 20260507042030 | 47 | 299 | 0.0 | 0.0 | 0.00 | 0.01 | 0.00 | 69 | 1016.3 |
| 20260507041536 | 47 | 299 | 0.0 | 0.0 | 0.00 | 0.01 | 0.00 | 69 | 1016.4 |
| 20260507041021 | 47 | 299 | 0.0 | 0.0 | 0.00 | 0.01 | 0.00 | 68 | 1016.4 |
| 20260507040527 | 47 | 299 | 0.0 | 0.0 | 0.00 | 0.01 | 0.00 | 68 | 1016.3 |
| 20260507040033 | 48 | 299 | 0.0 | 0.0 | 0.00 | 0.01 | 0.00 | 67 | 1016.3 |
| 20260507035539 | 48 | 299 | 0.0 | 0.0 | 0.00 | 0.01 | 0.00 | 67 | 1016.4 |
| 20260507035024 | 48 | 299 | 0.0 | 0.0 | 0.00 | 0.01 | 0.00 | 66 | 1016.3 |
| 20260507034533 | 48 | 299 | 0.0 | 0.0 | 0.00 | 0.01 | 0.00 | 65 | 1016.3 |
| 20260507034039 | 49 | 299 | 0.0 | 0.0 | 0.00 | 0.01 | 0.00 | 65 | 1016.3 |
| 20260507033523 | 49 | 299 | 0.0 | 0.0 | 0.00 | 0.01 | 0.00 | 64 | 1016.2 |
| 20260507033028 | 49 | 299 | 0.0 | 0.0 | 0.00 | 0.01 | 0.00 | 64 | 1016.3 |
| 20260507032533 | 50 | 299 | 0.0 | 0.0 | 0.00 | 0.01 | 0.00 | 64 | 1016.3 |
| 20260507032019 | 50 | 300 | 0.0 | 0.0 | 0.00 | 0.01 | 0.00 | 62 | 1016.3 |
| 20260507031525 | 50 | 300 | 0.0 | 0.0 | 0.00 | 0.01 | 0.00 | 61 | 1016.3 |
| 20260507031030 | 50 | 300 | 0.0 | 0.0 | 0.00 | 0.01 | 0.00 | 59 | 1016.3 |
| 20260507030555 | 51 | 299 | 0.0 | 0.0 | 0.00 | 0.01 | 0.00 | 58 | 1016.2 |
| 20260507030039 | 51 | 299 | 0.0 | 0.0 | 0.00 | 0.01 | 0.00 | 58 | 1016.2 |
| 20260507025543 | 51 | 300 | 0.0 | 0.0 | 0.00 | 0.01 | 0.00 | 58 | 1016.2 |
| 20260507025026 | 51 | 300 | 0.0 | 0.0 | 0.00 | 0.01 | 0.00 | 57 | 1016.2 |
| 20260507024531 | 51 | 300 | 0.0 | 0.0 | 0.00 | 0.01 | 0.00 | 57 | 1016.2 |
| 20260507024020 | 51 | 54 | 0.0 | 0.0 | 0.00 | 0.01 | 0.00 | 56 | 1016.0 |
| 20260507023527 | 51 | 54 | 0.0 | 0.0 | 0.00 | 0.01 | 0.00 | 55 | 1016.0 |
| 20260507023052 | 52 | 54 | 0.0 | 0.0 | 0.00 | 0.01 | 0.00 | 55 | 1016.0 |
| 20260507022537 | 52 | 54 | 0.0 | 0.0 | 0.00 | 0.01 | 0.00 | 54 | 1015.9 |
| 20260507022022 | 52 | 54 | 0.0 | 0.0 | 0.00 | 0.01 | 0.00 | 54 | 1015.9 |
| 20260507021527 | 52 | 54 | 0.0 | 0.0 | 0.00 | 0.01 | 0.00 | 54 | 1015.8 |
| 20260507021032 | 53 | 54 | 0.0 | 0.0 | 0.00 | 0.01 | 0.00 | 53 | 1015.8 |
| 20260507020537 | 53 | 54 | 0.0 | 0.0 | 0.00 | 0.01 | 0.00 | 53 | 1015.6 |
| 20260507020021 | 53 | 55 | 0.0 | 0.0 | 0.00 | 0.01 | 0.00 | 51 | 1015.6 |
| 20260507015527 | 54 | 55 | 0.0 | 0.0 | 0.00 | 0.01 | 0.00 | 51 | 1015.5 |
| 20260507015032 | 54 | 55 | 0.0 | 0.0 | 0.00 | 0.01 | 0.00 | 50 | 1015.5 |
| 20260507014521 | 54 | 55 | 0.0 | 0.0 | 0.00 | 0.01 | 0.00 | 50 | 1015.5 |
| 20260507014046 | 55 | 55 | 0.0 | 0.0 | 0.00 | 0.01 | 0.00 | 49 | 1015.5 |
| 20260507013529 | 55 | 55 | 0.0 | 0.0 | 0.00 | 0.01 | 0.00 | 48 | 1015.5 |
| 20260507013034 | 56 | 55 | 0.0 | 0.0 | 0.00 | 0.01 | 0.00 | 47 | 1015.4 |
| 20260507012520 | 56 | 61 | 0.0 | 0.0 | 0.00 | 0.01 | 0.00 | 46 | 1015.4 |
| 20260507012026 | 56 | 61 | 0.0 | 0.0 | 0.00 | 0.01 | 0.00 | 46 | 1015.4 |
| 20260507011533 | 57 | 66 | 0.0 | 0.0 | 0.00 | 0.01 | 0.00 | 45 | 1015.4 |
| 20260507011019 | 57 | 11 | 0.0 | 0.0 | 0.00 | 0.01 | 0.00 | 44 | 1015.3 |
| 20260507010525 | 57 | 323 | 0.0 | 0.0 | 0.00 | 0.01 | 0.00 | 45 | 1015.2 |
| 20260507010052 | 58 | 323 | 0.0 | 0.0 | 0.00 | 0.01 | 0.00 | 44 | 1015.2 |
| 20260507005534 | 58 | 350 | 0.0 | 0.0 | 0.00 | 0.01 | 0.00 | 42 | 1015.0 |
| 20260507005023 | 58 | 28 | 0.0 | 0.0 | 0.00 | 0.01 | 0.00 | 43 | 1015.0 |
| 20260507004548 | 58 | 22 | 0.0 | 0.0 | 0.00 | 0.01 | 0.00 | 43 | 1014.9 |
| 20260507004033 | 58 | 27 | 0.0 | 0.9 | 0.00 | 0.01 | 0.00 | 44 | 1014.8 |
| 20260507003537 | 59 | 355 | 0.0 | 0.9 | 0.00 | 0.01 | 0.00 | 43 | 1014.7 |
| 20260507003041 | 59 | 17 | 0.0 | 0.9 | 0.00 | 0.01 | 0.00 | 43 | 1014.6 |
| 20260507002545 | 59 | 57 | 0.0 | 0.9 | 0.00 | 0.02 | 0.00 | 42 | 1014.5 |
| 20260507002049 | 59 | 53 | 0.0 | 0.0 | 0.00 | 0.02 | 0.00 | 42 | 1014.4 |
| 20260507001533 | 59 | 285 | 0.0 | 0.0 | 0.00 | 0.02 | 0.00 | 41 | 1014.3 |
| 20260507001057 | 60 | 348 | 0.0 | 0.9 | 0.00 | 0.02 | 0.00 | 41 | 1014.3 |
| 20260507000542 | 60 | 30 | 0.0 | 0.0 | 0.00 | 0.02 | 0.00 | 41 | 1014.2 |
| 20260507000045 | 60 | 275 | 0.0 | 0.0 | 0.00 | 0.02 | 0.00 | 42 | 1014.2 |
| 20260506235529 | 61 | 37 | 0.0 | 0.0 | 0.00 | 0.02 | 0.00 | 41 | 1014.1 |
| 20260506235034 | 61 | 291 | 0.0 | 0.0 | 0.00 | 0.02 | 0.00 | 40 | 1014.2 |
| 20260506234521 | 61 | 38 | 0.0 | 0.9 | 0.00 | 0.02 | 0.00 | 39 | 1014.1 |
| 20260506234026 | 62 | 69 | 0.0 | 0.9 | 0.00 | 0.02 | 0.00 | 39 | 1014.2 |
| 20260506233531 | 62 | 279 | 0.0 | 0.9 | 0.00 | 0.02 | 0.00 | 39 | 1014.2 |
| 20260506233020 | 62 | 39 | 0.0 | 0.9 | 0.00 | 0.02 | 0.00 | 37 | 1014.3 |
| 20260506232524 | 62 | 302 | 0.0 | 0.0 | 0.00 | 0.02 | 0.00 | 39 | 1014.2 |
| 20260506232029 | 62 | 85 | 0.0 | 0.0 | 0.00 | 0.02 | 0.00 | 39 | 1014.2 |
| 20260506231534 | 62 | 69 | 0.0 | 0.9 | 0.00 | 0.02 | 0.00 | 39 | 1014.2 |
| 20260506231020 | 62 | 5 | 0.0 | 0.9 | 0.00 | 0.02 | 0.00 | 40 | 1014.0 |
| 20260506230545 | 62 | 342 | 0.0 | 0.9 | 0.00 | 0.02 | 0.00 | 39 | 1014.1 |
| 20260506230029 | 62 | 19 | 0.0 | 0.9 | 0.00 | 0.02 | 0.00 | 40 | 1014.1 |
| 20260506225555 | 62 | 78 | 0.0 | 2.6 | 0.00 | 0.02 | 0.00 | 39 | 1014.3 |
| 20260506225059 | 62 | 313 | 0.0 | 2.6 | 0.00 | 0.02 | 0.00 | 38 | 1014.4 |
| 20260506224523 | 62 | 126 | 0.0 | 1.7 | 0.00 | 0.02 | 0.00 | 40 | 1014.3 |
| 20260506224028 | 63 | 49 | 0.0 | 1.7 | 0.00 | 0.02 | 0.00 | 37 | 1014.2 |
| 20260506223534 | 63 | 117 | 0.0 | 0.9 | 0.00 | 0.02 | 0.00 | 38 | 1014.2 |
| 20260506223059 | 63 | 34 | 0.0 | 1.7 | 0.00 | 0.02 | 0.00 | 38 | 1014.1 |
| 20260506222523 | 62 | 12 | 0.0 | 1.7 | 0.00 | 0.04 | 0.00 | 38 | 1014.3 |
| 20260506222031 | 62 | 58 | 0.0 | 1.7 | 0.00 | 0.04 | 0.00 | 38 | 1014.2 |
| 20260506221536 | 62 | 42 | 0.0 | 1.7 | 0.00 | 0.04 | 0.00 | 39 | 1014.2 |
| 20260506221021 | 62 | 70 | 0.0 | 2.6 | 0.00 | 0.04 | 0.00 | 39 | 1014.1 |
| 20260506220526 | 62 | 80 | 0.0 | 1.7 | 0.00 | 0.04 | 0.00 | 39 | 1014.1 |
| 20260506220051 | 62 | 61 | 0.0 | 1.7 | 0.00 | 0.04 | 0.00 | 37 | 1014.0 |
| 20260506215535 | 63 | 30 | 0.0 | 0.9 | 0.00 | 0.04 | 0.00 | 38 | 1014.0 |
| 20260506215021 | 63 | 26 | 0.0 | 0.9 | 0.00 | 0.04 | 0.00 | 37 | 1014.2 |
| 20260506214526 | 63 | 34 | 0.0 | 1.7 | 0.00 | 0.04 | 0.00 | 37 | 1014.2 |
| 20260506214051 | 63 | 23 | 0.0 | 1.7 | 0.00 | 0.04 | 0.00 | 39 | 1014.2 |
| 20260506213535 | 63 | 355 | 0.0 | 0.9 | 0.00 | 0.04 | 0.00 | 39 | 1014.2 |
| 20260506213041 | 64 | 42 | 0.0 | 1.7 | 0.00 | 0.04 | 0.00 | 39 | 1014.3 |
| 20260506212525 | 64 | 44 | 0.0 | 1.7 | 0.00 | 0.04 | 0.00 | 39 | 1014.2 |
| 20260506212030 | 64 | 113 | 0.0 | 1.7 | 0.00 | 0.04 | 0.00 | 38 | 1014.1 |
| 20260506211520 | 64 | 82 | 0.0 | 1.7 | 0.00 | 0.04 | 0.00 | 37 | 1014.2 |
| 20260506211044 | 64 | 50 | 0.0 | 0.9 | 0.00 | 0.04 | 0.00 | 39 | 1014.2 |
| 20260506210528 | 64 | 32 | 0.0 | 1.7 | 0.00 | 0.04 | 0.00 | 39 | 1014.4 |
| 20260506210054 | 64 | 305 | 0.0 | 2.6 | 0.00 | 0.04 | 0.00 | 37 | 1014.6 |
| 20260506205538 | 64 | 360 | 0.0 | 2.6 | 0.00 | 0.04 | 0.00 | 37 | 1014.5 |
| 20260506205043 | 63 | 332 | 0.0 | 3.5 | 0.00 | 0.04 | 0.00 | 39 | 1014.5 |
| 20260506204528 | 63 | 355 | 0.9 | 3.5 | 0.00 | 0.04 | 0.00 | 38 | 1014.5 |
| 20260506204033 | 63 | 39 | 0.9 | 2.6 | 0.00 | 0.04 | 0.00 | 37 | 1014.3 |
| 20260506203519 | 64 | 9 | 0.0 | 4.3 | 0.00 | 0.04 | 0.00 | 37 | 1014.6 |
| 20260506203024 | 63 | 46 | 0.0 | 4.3 | 0.00 | 0.04 | 0.00 | 38 | 1014.7 |
| 20260506202529 | 63 | 63 | 0.0 | 2.6 | 0.00 | 0.07 | 0.00 | 36 | 1014.8 |
| 20260506202033 | 64 | 71 | 0.0 | 4.3 | 0.00 | 0.07 | 0.00 | 36 | 1014.9 |
| 20260506201524 | 64 | 46 | 0.0 | 4.3 | 0.00 | 0.07 | 0.00 | 36 | 1014.7 |
| 20260506201029 | 65 | 55 | 0.0 | 0.9 | 0.00 | 0.07 | 0.00 | 36 | 1014.8 |
| 20260506200535 | 65 | 306 | 0.0 | 1.7 | 0.00 | 0.07 | 0.00 | 37 | 1015.0 |
| 20260506200019 | 65 | 46 | 0.0 | 1.7 | 0.00 | 0.07 | 0.00 | 36 | 1014.9 |
| 20260506195525 | 65 | 350 | 0.0 | 0.9 | 0.00 | 0.07 | 0.00 | 36 | 1015.1 |
| 20260506195030 | 64 | 329 | 0.0 | 0.9 | 0.00 | 0.07 | 0.00 | 39 | 1015.1 |
| 20260506194535 | 64 | 73 | 0.0 | 2.6 | 0.00 | 0.07 | 0.00 | 38 | 1015.1 |
| 20260506194020 | 64 | 34 | 0.0 | 2.6 | 0.00 | 0.07 | 0.00 | 37 | 1015.3 |
| 20260506193525 | 64 | 5 | 0.0 | 0.0 | 0.00 | 0.07 | 0.00 | 38 | 1015.2 |
| 20260506193031 | 63 | 113 | 0.0 | 2.6 | 0.00 | 0.07 | 0.00 | 42 | 1015.2 |
| 20260506192519 | 62 | 78 | 0.0 | 2.6 | 0.00 | 0.07 | 0.00 | 41 | 1015.4 |
| 20260506192024 | 62 | 69 | 0.0 | 2.6 | 0.00 | 0.07 | 0.00 | 44 | 1015.5 |
| 20260506191549 | 61 | 46 | 0.0 | 1.7 | 0.00 | 0.07 | 0.00 | 42 | 1015.5 |
| 20260506191033 | 62 | 105 | 0.0 | 1.7 | 0.00 | 0.07 | 0.00 | 41 | 1015.5 |
| 20260506190559 | 63 | 42 | 0.0 | 1.7 | 0.00 | 0.07 | 0.00 | 40 | 1015.6 |
| 20260506190023 | 65 | 74 | 0.0 | 1.7 | 0.00 | 0.07 | 0.00 | 38 | 1015.8 |
| 20260506185549 | 64 | 184 | 0.0 | 0.9 | 0.00 | 0.07 | 0.00 | 41 | 1015.8 |
| 20260506185033 | 64 | 279 | 0.0 | 0.9 | 0.00 | 0.07 | 0.00 | 39 | 1015.8 |
| 20260506184558 | 63 | 260 | 0.0 | 0.9 | 0.00 | 0.07 | 0.00 | 42 | 1016.0 |
| 20260506184021 | 64 | 360 | 0.0 | 0.9 | 0.00 | 0.07 | 0.00 | 41 | 1015.9 |
| 20260506183526 | 64 | 83 | 0.0 | 1.7 | 0.00 | 0.07 | 0.00 | 39 | 1015.9 |
| 20260506183031 | 64 | 313 | 0.0 | 1.7 | 0.00 | 0.07 | 0.00 | 41 | 1015.9 |
| 20260506182536 | 63 | 53 | 0.0 | 1.7 | 0.00 | 0.07 | 0.00 | 42 | 1015.9 |
| 20260506182042 | 62 | 274 | 0.0 | 1.7 | 0.00 | 0.07 | 0.00 | 42 | 1016.1 |
| 20260506181525 | 63 | 47 | 0.0 | 0.9 | 0.00 | 0.07 | 0.00 | 42 | 1016.1 |
| 20260506181035 | 62 | 19 | 0.0 | 0.9 | 0.00 | 0.07 | 0.00 | 44 | 1016.2 |
| 20260506180540 | 63 | 32 | 0.0 | 0.0 | 0.00 | 0.07 | 0.00 | 46 | 1016.1 |
| 20260506180024 | 63 | 188 | 0.0 | 0.0 | 0.00 | 0.07 | 0.00 | 46 | 1016.3 |
| 20260506175529 | 62 | 332 | 0.0 | 0.0 | 0.00 | 0.07 | 0.00 | 45 | 1016.2 |
| 20260506175035 | 62 | 283 | 0.0 | 3.5 | 0.00 | 0.07 | 0.00 | 45 | 1016.2 |
| 20260506174540 | 61 | 36 | 0.0 | 1.7 | 0.00 | 0.07 | 0.00 | 46 | 1016.3 |
| 20260506174025 | 62 | 66 | 0.0 | 1.7 | 0.00 | 0.07 | 0.00 | 44 | 1016.3 |
| 20260506173528 | 61 | 70 | 0.0 | 1.7 | 0.00 | 0.07 | 0.00 | 44 | 1016.3 |
| 20260506173052 | 61 | 287 | 0.0 | 1.7 | 0.00 | 0.07 | 0.00 | 45 | 1016.3 |
| 20260506172558 | 61 | 55 | 0.0 | 0.9 | 0.00 | 0.07 | 0.00 | 45 | 1016.3 |
| 20260506172021 | 61 | 108 | 0.0 | 2.6 | 0.00 | 0.07 | 0.00 | 44 | 1016.3 |
| 20260506171527 | 61 | 355 | 0.0 | 2.6 | 0.00 | 0.07 | 0.00 | 42 | 1016.4 |
| 20260506171030 | 61 | 31 | 0.0 | 0.9 | 0.00 | 0.07 | 0.00 | 44 | 1016.3 |
| 20260506170555 | 61 | 119 | 0.0 | 1.7 | 0.00 | 0.07 | 0.00 | 45 | 1016.2 |
| 20260506170038 | 61 | 355 | 0.0 | 1.7 | 0.00 | 0.07 | 0.00 | 45 | 1016.1 |
| 20260506165527 | 60 | 69 | 0.0 | 1.7 | 0.00 | 0.07 | 0.00 | 45 | 1016.0 |
| 20260506165028 | 60 | 32 | 0.0 | 1.7 | 0.00 | 0.07 | 0.00 | 46 | 1016.1 |
| 20260506164528 | 59 | 332 | 0.0 | 0.9 | 0.00 | 0.07 | 0.00 | 48 | 1015.8 |
| 20260506164033 | 58 | 76 | 0.0 | 7.0 | 0.00 | 0.07 | 0.00 | 50 | 1015.8 |
| 20260506163559 | 57 | 84 | 0.0 | 7.0 | 0.00 | 0.07 | 0.00 | 46 | 1015.8 |
| 20260506163045 | 58 | 61 | 0.0 | 6.1 | 0.00 | 0.07 | 0.00 | 46 | 1015.8 |
| 20260506162531 | 57 | 63 | 0.0 | 6.1 | 0.00 | 0.20 | 0.00 | 47 | 1015.8 |
| 20260506162034 | 57 | 360 | 0.0 | 1.7 | 0.00 | 0.20 | 0.00 | 49 | 1015.8 |
| 20260506161521 | 57 | 50 | 0.0 | 0.0 | 0.00 | 0.20 | 0.00 | 54 | 1015.6 |
| 20260506161026 | 57 | 65 | 0.0 | 0.9 | 0.00 | 0.20 | 0.00 | 53 | 1015.8 |
| 20260506160533 | 57 | 82 | 0.0 | 0.9 | 0.00 | 0.20 | 0.00 | 52 | 1015.8 |
| 20260506160019 | 57 | 61 | 0.0 | 0.9 | 0.00 | 0.20 | 0.00 | 51 | 1015.8 |
| 20260506155529 | 57 | 276 | 0.0 | 0.0 | 0.00 | 0.20 | 0.00 | 53 | 1015.6 |
| 20260506155034 | 56 | 90 | 0.0 | 0.9 | 0.00 | 0.20 | 0.00 | 54 | 1015.5 |
| 20260506154519 | 56 | 64 | 0.0 | 0.9 | 0.00 | 0.20 | 0.00 | 55 | 1015.5 |
| 20260506154023 | 55 | 82 | 0.0 | 0.9 | 0.00 | 0.20 | 0.00 | 58 | 1015.4 |
| 20260506153528 | 55 | 64 | 0.0 | 3.5 | 0.00 | 0.20 | 0.00 | 56 | 1015.3 |
| 20260506153055 | 55 | 46 | 0.0 | 3.5 | 0.00 | 0.20 | 0.00 | 55 | 1015.3 |
| 20260506152519 | 55 | 347 | 0.0 | 1.7 | 0.00 | 0.20 | 0.20 | 57 | 1015.2 |
| 20260506152022 | 54 | 53 | 0.0 | 1.7 | 0.00 | 0.20 | 0.20 | 57 | 1015.3 |
| 20260506151547 | 54 | 91 | 0.0 | 1.7 | 0.00 | 0.20 | 0.20 | 56 | 1015.2 |
| 20260506151052 | 54 | 30 | 0.0 | 0.9 | 0.00 | 0.20 | 0.20 | 58 | 1015.3 |
| 20260506150556 | 53 | 327 | 0.0 | 0.9 | 0.00 | 0.20 | 0.20 | 59 | 1015.2 |
| 20260506150039 | 53 | 66 | 0.0 | 0.0 | 0.00 | 0.20 | 0.20 | 59 | 1015.2 |
| 20260506145543 | 53 | 42 | 0.0 | 0.0 | 0.00 | 0.20 | 0.20 | 63 | 1015.3 |
| 20260506145024 | 53 | 58 | 0.0 | 0.9 | 0.00 | 0.20 | 0.20 | 61 | 1015.3 |
| 20260506144531 | 53 | 57 | 0.0 | 0.9 | 0.00 | 0.20 | 0.20 | 61 | 1015.3 |
| 20260506144037 | 53 | 64 | 0.0 | 0.9 | 0.00 | 0.20 | 0.20 | 63 | 1015.3 |
| 20260506143538 | 52 | 73 | 0.0 | 0.9 | 0.00 | 0.20 | 0.20 | 65 | 1015.3 |
| 20260506143024 | 51 | 32 | 0.0 | 0.9 | 0.00 | 0.20 | 0.20 | 65 | 1015.3 |
| 20260506142549 | 51 | 71 | 0.0 | 0.0 | 0.00 | 0.20 | 0.20 | 64 | 1015.3 |
| 20260506142031 | 51 | 71 | 0.0 | 0.0 | 0.00 | 0.20 | 0.20 | 66 | 1015.3 |
| 20260506141536 | 51 | 63 | 0.0 | 0.0 | 0.00 | 0.20 | 0.20 | 68 | 1015.3 |
| 20260506141036 | 51 | 80 | 0.0 | 0.0 | 0.00 | 0.20 | 0.20 | 71 | 1015.2 |
| 20260506140536 | 50 | 84 | 0.0 | 0.0 | 0.00 | 0.20 | 0.20 | 70 | 1015.2 |
| 20260506140042 | 50 | 78 | 0.0 | 0.0 | 0.00 | 0.20 | 0.20 | 73 | 1015.1 |
| 20260506135527 | 50 | 75 | 0.0 | 0.0 | 0.00 | 0.20 | 0.20 | 76 | 1015.1 |
| 20260506135033 | 49 | 67 | 0.0 | 0.0 | 0.00 | 0.20 | 0.20 | 77 | 1014.9 |
| 20260506134519 | 49 | 65 | 0.0 | 0.0 | 0.00 | 0.20 | 0.20 | 78 | 1014.8 |
| 20260506134029 | 48 | 77 | 0.0 | 0.0 | 0.00 | 0.20 | 0.20 | 80 | 1014.8 |
| 20260506133535 | 48 | 61 | 0.0 | 0.0 | 0.00 | 0.20 | 0.20 | 81 | 1014.9 |
| 20260506133021 | 48 | 59 | 0.0 | 0.0 | 0.00 | 0.20 | 0.20 | 83 | 1015.0 |
| 20260506132527 | 47 | 32 | 0.0 | 0.0 | 0.00 | 0.20 | 0.20 | 84 | 1015.0 |
| 20260506132051 | 47 | 50 | 0.0 | 0.0 | 0.00 | 0.20 | 0.20 | 84 | 1015.0 |
| 20260506131536 | 47 | 76 | 0.0 | 0.0 | 0.00 | 0.20 | 0.20 | 85 | 1015.1 |
| 20260506131022 | 46 | 72 | 0.0 | 0.0 | 0.00 | 0.20 | 0.20 | 86 | 1015.2 |
| 20260506130528 | 46 | 61 | 0.0 | 0.0 | 0.00 | 0.20 | 0.20 | 86 | 1015.1 |
| 20260506130033 | 46 | 85 | 0.0 | 0.0 | 0.00 | 0.20 | 0.20 | 87 | 1015.1 |
| 20260506125520 | 46 | 39 | 0.0 | 0.0 | 0.00 | 0.20 | 0.20 | 87 | 1014.9 |
| 20260506125026 | 46 | 65 | 0.0 | 0.0 | 0.00 | 0.20 | 0.20 | 87 | 1015.0 |
| 20260506124537 | 46 | 105 | 0.0 | 0.0 | 0.00 | 0.20 | 0.20 | 88 | 1015.1 |
| 20260506124023 | 46 | 13 | 0.0 | 0.0 | 0.00 | 0.20 | 0.20 | 88 | 1015.3 |
| 20260506123549 | 46 | 19 | 0.0 | 0.0 | 0.00 | 0.20 | 0.20 | 88 | 1015.2 |
| 20260506123033 | 46 | 5 | 0.0 | 0.0 | 0.00 | 0.20 | 0.20 | 88 | 1015.3 |
| 20260506122519 | 46 | 36 | 0.0 | 0.0 | 0.00 | 0.20 | 0.20 | 89 | 1015.4 |
| 20260506122025 | 46 | 355 | 0.0 | 0.0 | 0.00 | 0.20 | 0.20 | 89 | 1015.2 |
| 20260506121531 | 45 | 52 | 0.0 | 0.0 | 0.00 | 0.20 | 0.20 | 89 | 1015.1 |
| 20260506121036 | 45 | 20 | 0.0 | 0.0 | 0.00 | 0.20 | 0.20 | 90 | 1015.1 |
| 20260506120522 | 45 | 5 | 0.0 | 0.0 | 0.00 | 0.20 | 0.20 | 89 | 1015.1 |
| 20260506120028 | 45 | 63 | 0.0 | 0.0 | 0.00 | 0.20 | 0.20 | 90 | 1015.1 |
| 20260506115554 | 45 | 303 | 0.0 | 0.0 | 0.00 | 0.20 | 0.20 | 90 | 1015.2 |
| 20260506115023 | 45 | 244 | 0.0 | 0.0 | 0.00 | 0.20 | 0.20 | 90 | 1015.0 |
| 20260506114529 | 45 | 349 | 0.0 | 0.0 | 0.00 | 0.20 | 0.20 | 90 | 1015.0 |
| 20260506114036 | 45 | 325 | 0.0 | 0.0 | 0.00 | 0.20 | 0.20 | 90 | 1015.0 |
| 20260506113522 | 45 | 221 | 0.0 | 0.0 | 0.00 | 0.20 | 0.20 | 90 | 1014.9 |
| 20260506113029 | 45 | 325 | 0.0 | 0.0 | 0.00 | 0.20 | 0.20 | 90 | 1014.8 |
| 20260506112535 | 45 | 86 | 0.0 | 0.0 | 0.00 | 0.20 | 0.20 | 90 | 1014.7 |
| 20260506112021 | 45 | 275 | 0.0 | 0.0 | 0.00 | 0.20 | 0.20 | 90 | 1014.5 |
| 20260506111527 | 45 | 305 | 0.0 | 0.0 | 0.00 | 0.20 | 0.20 | 90 | 1014.2 |
| 20260506111033 | 45 | 52 | 0.0 | 0.0 | 0.00 | 0.20 | 0.20 | 90 | 1013.9 |
| 20260506110537 | 45 | 52 | 0.0 | 0.0 | 0.00 | 0.20 | 0.20 | 90 | 1013.7 |
| 20260506110026 | 45 | 46 | 0.0 | 0.0 | 0.00 | 0.20 | 0.20 | 90 | 1013.7 |
| 20260506105532 | 45 | 46 | 0.0 | 0.0 | 0.00 | 0.20 | 0.20 | 90 | 1013.8 |
| 20260506105019 | 45 | 50 | 0.0 | 0.0 | 0.00 | 0.20 | 0.20 | 90 | 1013.8 |
| 20260506104525 | 45 | 19 | 0.0 | 0.0 | 0.00 | 0.20 | 0.20 | 90 | 1013.7 |
| 20260506104031 | 45 | 19 | 0.0 | 0.0 | 0.00 | 0.20 | 0.20 | 90 | 1013.9 |
| 20260506103536 | 45 | 15 | 0.0 | 0.0 | 0.00 | 0.20 | 0.20 | 90 | 1013.9 |
| 20260506103023 | 45 | 11 | 0.0 | 0.0 | 0.00 | 0.20 | 0.20 | 91 | 1013.8 |
| 20260506102527 | 45 | 12 | 0.0 | 0.0 | 0.00 | 0.20 | 0.20 | 90 | 1013.5 |
| 20260506102034 | 45 | 342 | 0.0 | 0.0 | 0.00 | 0.20 | 0.20 | 90 | 1013.7 |
| 20260506101518 | 45 | 23 | 0.0 | 0.0 | 0.00 | 0.20 | 0.20 | 91 | 1013.5 |
| 20260506101022 | 45 | 28 | 0.0 | 0.0 | 0.00 | 0.20 | 0.20 | 91 | 1013.2 |
| 20260506100547 | 45 | 355 | 0.0 | 0.0 | 0.00 | 0.20 | 0.20 | 91 | 1013.6 |
| 20260506100035 | 45 | 17 | 0.0 | 0.0 | 0.00 | 0.20 | 0.20 | 91 | 1013.7 |
| 20260506095540 | 45 | 26 | 0.0 | 0.0 | 0.00 | 0.20 | 0.20 | 91 | 1013.2 |
| 20260506095022 | 45 | 15 | 0.0 | 0.0 | 0.00 | 0.20 | 0.20 | 91 | 1013.2 |
| 20260506094527 | 45 | 351 | 0.0 | 0.0 | 0.00 | 0.20 | 0.20 | 91 | 1013.1 |
| 20260506094032 | 45 | 55 | 0.0 | 0.0 | 0.00 | 0.20 | 0.20 | 91 | 1013.1 |
| 20260506093537 | 45 | 14 | 0.0 | 0.0 | 0.00 | 0.20 | 0.20 | 91 | 1013.2 |
| 20260506093042 | 45 | 12 | 0.0 | 0.0 | 0.00 | 0.20 | 0.20 | 91 | 1013.2 |
| 20260506092525 | 45 | 13 | 0.0 | 0.0 | 0.00 | 0.20 | 0.20 | 91 | 1013.1 |
| 20260506092029 | 45 | 325 | 0.0 | 0.0 | 0.00 | 0.20 | 0.20 | 91 | 1013.1 |
| 20260506091535 | 45 | 323 | 0.0 | 0.0 | 0.00 | 0.20 | 0.20 | 91 | 1013.1 |
| 20260506091020 | 45 | 234 | 0.0 | 0.0 | 0.00 | 0.20 | 0.20 | 91 | 1012.9 |
| 20260506090525 | 45 | 233 | 0.0 | 0.0 | 0.00 | 0.20 | 0.20 | 91 | 1012.7 |
| 20260506090032 | 44 | 45 | 0.0 | 0.0 | 0.00 | 0.20 | 0.20 | 90 | 1011.8 |
| 20260506085537 | 44 | 78 | 0.0 | 0.0 | 0.00 | 0.20 | 0.20 | 90 | 1011.2 |
| 20260506085021 | 45 | 74 | 0.0 | 0.0 | 0.00 | 0.20 | 0.20 | 90 | 1011.5 |
| 20260506084545 | 45 | 321 | 0.0 | 0.0 | 0.00 | 0.20 | 0.20 | 90 | 1011.9 |
| 20260506084030 | 45 | 99 | 0.0 | 0.0 | 0.00 | 0.20 | 0.20 | 90 | 1011.9 |
| 20260506083555 | 45 | 228 | 0.0 | 0.0 | 0.00 | 0.20 | 0.20 | 90 | 1012.5 |
| 20260506083019 | 44 | 71 | 0.0 | 0.0 | 0.00 | 0.20 | 0.20 | 90 | 1011.5 |
| 20260506082525 | 45 | 19 | 0.0 | 0.0 | 0.00 | 0.20 | 0.20 | 90 | 1011.0 |
| 20260506082030 | 45 | 35 | 0.0 | 0.0 | 0.00 | 0.20 | 0.20 | 90 | 1011.1 |
| 20260506081534 | 45 | 35 | 0.0 | 0.0 | 0.00 | 0.20 | 0.20 | 90 | 1011.0 |
| 20260506081019 | 45 | 35 | 0.0 | 0.0 | 0.00 | 0.20 | 0.20 | 90 | 1011.4 |
| 20260506080525 | 45 | 78 | 0.0 | 0.0 | 0.00 | 0.20 | 0.20 | 90 | 1011.1 |
| 20260506073021 | 45 | 53 | 0.0 | 0.0 | 0.00 | 0.20 | 0.20 | 90 | 1011.7 |
| 20260506072527 | 45 | 55 | 0.0 | 0.0 | 0.00 | 0.20 | 0.20 | 90 | 1011.8 |
| 20260506072033 | 45 | 59 | 0.0 | 0.0 | 0.00 | 0.20 | 0.20 | 90 | 1012.1 |
| 20260506071538 | 45 | 53 | 0.0 | 0.0 | 0.00 | 0.20 | 0.20 | 90 | 1012.2 |
| 20260506071023 | 45 | 29 | 0.0 | 0.0 | 0.00 | 0.20 | 0.20 | 90 | 1012.6 |
| 20260506070528 | 45 | 29 | 0.0 | 0.0 | 0.00 | 0.20 | 0.20 | 90 | 1012.6 |
| 20260506062037 | 45 | 19 | 0.0 | 0.0 | 0.00 | 0.20 | 0.20 | 89 | 1012.4 |
| 20260506061521 | 45 | 19 | 0.0 | 0.0 | 0.00 | 0.20 | 0.20 | 89 | 1012.6 |
| 20260506061048 | 45 | 72 | 0.0 | 0.0 | 0.00 | 0.20 | 0.20 | 89 | 1012.5 |
| 20260506060536 | 45 | 72 | 0.0 | 0.0 | 0.00 | 0.20 | 0.20 | 89 | 1012.6 |
| 20260506051026 | 45 | 64 | 0.0 | 0.0 | 0.00 | 0.20 | 0.20 | 89 | 1011.4 |
| 20260506050551 | 45 | 82 | 0.0 | 0.0 | 0.01 | 0.20 | 0.20 | 89 | 1011.3 |
| 20260506045048 | 45 | 49 | 0.0 | 0.0 | 0.01 | 0.20 | 0.20 | 89 | 1011.5 |
| 20260506044553 | 45 | 61 | 0.0 | 0.0 | 0.01 | 0.20 | 0.20 | 89 | 1011.3 |
| 20260506044056 | 45 | 25 | 0.0 | 0.0 | 0.01 | 0.20 | 0.20 | 89 | 1011.4 |
| 20260506043521 | 45 | 71 | 0.0 | 0.0 | 0.01 | 0.20 | 0.20 | 89 | 1011.2 |